Dallas Love, TX

2:05 PM CDT on May 29, 2017 (GMT -0500)
Dallas Love

Weather History for KDAL - March, 2014

Change the Weather History Date:

Wednesday, March 19, 2014

  Actual Average Record
Temperature  
Mean Temperature 56 °F -  
Max Temperature 66 °F 65 °F 84 °F (2017)
Min Temperature 46 °F 47 °F 42 °F (1998)
Degree Days  
Heating Degree Days 9    
Growing Degree Days 6 (Base 50)    
Moisture  
Dew Point 31 °F    
Average Humidity 40    
Maximum Humidity 59    
Minimum Humidity 26    
Precipitation  
Precipitation 0.00 in - - ()
Sea Level Pressure  
Sea Level Pressure 30.11 in    
Wind  
Wind Speed 12 mph (NNW)    
Max Wind Speed 21 mph    
Max Gust Speed 26 mph    
Visibility 9 miles    
Events      
Averages and records for this station are not official NWS values.
T = Trace of Precipitation, MM = Missing Value Source: NWS Daily Summary

Daily Weather History Graph

Daily Weather History Graph

Search for Another Location

Airport or City:

Trip Planner

Search our weather history database for the weather conditions in past years. The results will help you decide how hot, cold, wet, or windy it might be!

Date:

Astronomy

Mar. 19, 2014 Rise Set
Actual Time 7:32 AM CDT 7:38 PM CDT
Civil Twilight 7:07 AM CDT 8:02 PM CDT
Nautical Twilight 6:39 AM CDT 8:31 PM CDT
Astronomical Twilight 6:10 AM CDT 9:00 PM CDT
Moon 10:46 PM CDT (3/19) 9:09 AM CDT (3/19)
Length of Visible Light 12h 55m
Length of Day
12h 05m
Waning Gibbous, 91% of the Moon is Illuminated
Mar 19
Waning Gibbous
Mar 23
Last Quarter
Mar 30
New
Apr 7
First Quarter
Apr 15
Full

Hourly Weather History & Observations

Time (CDT) Temp. Windchill Dew Point Humidity Pressure Visibility Wind Dir Wind Speed Gust Speed Precip Events Conditions
12:45 AM 64.4 °F - 28.4 °F 26% 29.91 in 2.5 mi NNW 15.0 mph - N/A   Widespread Dust
12:53 AM 62.6 °F - 28.4 °F 27% 29.90 in 2.5 mi NNW 13.8 mph 21.9 mph N/A   Widespread Dust
1:18 AM 62.6 °F - 28.4 °F 27% 29.93 in 4.0 mi NNW 15.0 mph - N/A   Widespread Dust
1:53 AM 59.0 °F - 30.2 °F 34% 29.95 in 5.0 mi NNW 15.0 mph - N/A   Widespread Dust
2:53 AM 55.4 °F - 26.6 °F 33% 29.98 in 8.0 mi NNW 20.7 mph 25.3 mph N/A   Scattered Clouds
3:53 AM 52.0 °F - 27.0 °F 38% 30.00 in 10.0 mi NNW 13.8 mph - N/A   Scattered Clouds
4:53 AM 50.0 °F - 28.0 °F 43% 30.02 in 10.0 mi NNW 15.0 mph - N/A   Mostly Cloudy
5:53 AM 48.0 °F - 28.9 °F 48% 30.06 in 10.0 mi NNW 10.4 mph - N/A   Mostly Cloudy
6:53 AM 46.9 °F - 28.9 °F 50% 30.10 in 10.0 mi NNW 8.1 mph - N/A   Mostly Cloudy
7:53 AM 46.0 °F 41.0 °F 30.0 °F 54% 30.14 in 10.0 mi NNW 10.4 mph - N/A   Mostly Cloudy
8:53 AM 46.0 °F 40.2 °F 30.0 °F 54% 30.17 in 10.0 mi NNW 12.7 mph 21.9 mph N/A   Mostly Cloudy
9:53 AM 48.0 °F - 30.9 °F 52% 30.19 in 10.0 mi North 15.0 mph 24.2 mph N/A   Mostly Cloudy
10:53 AM 51.1 °F - 32.0 °F 48% 30.19 in 10.0 mi North 10.4 mph 20.7 mph N/A   Mostly Cloudy
11:53 AM 54.0 °F - 32.0 °F 43% 30.20 in 10.0 mi North 16.1 mph 21.9 mph N/A   Mostly Cloudy
12:53 PM 57.0 °F - 32.0 °F 39% 30.18 in 10.0 mi North 11.5 mph 26.5 mph N/A   Mostly Cloudy
1:53 PM 60.1 °F - 33.1 °F 36% 30.17 in 10.0 mi North 12.7 mph - N/A   Mostly Cloudy
2:53 PM 62.1 °F - 33.1 °F 34% 30.16 in 10.0 mi North 8.1 mph - N/A   Mostly Cloudy
3:53 PM 64.0 °F - 34.0 °F 33% 30.15 in 10.0 mi North 8.1 mph - N/A   Mostly Cloudy
4:53 PM 66.0 °F - 34.0 °F 30% 30.14 in 10.0 mi NNW 9.2 mph - N/A   Mostly Cloudy
5:53 PM 64.9 °F - 33.1 °F 31% 30.13 in 10.0 mi North 11.5 mph - N/A   Scattered Clouds
6:53 PM 63.0 °F - 32.0 °F 31% 30.14 in 10.0 mi NNW 6.9 mph - N/A   Mostly Cloudy
7:53 PM 60.1 °F - 30.9 °F 33% 30.15 in 10.0 mi North 5.8 mph - N/A   Scattered Clouds
8:53 PM 59.0 °F - 32.0 °F 36% 30.18 in 10.0 mi Calm Calm - N/A   Partly Cloudy
9:53 PM 55.9 °F - 34.0 °F 44% 30.19 in 10.0 mi Calm Calm - N/A   Partly Cloudy
10:53 PM 51.1 °F - 35.1 °F 54% 30.21 in 10.0 mi Calm Calm - N/A   Partly Cloudy
11:53 PM 50.0 °F - 36.0 °F 59% 30.21 in 10.0 mi Calm Calm - N/A   Clear